Regional Weather Roundup
Issued by NWS

Home | Current Version | Previous Version | Text Only | Print | Product List | Glossary On
Versions: 1 2 3 4 5 6 7 8 9 10 11 12 13 14 15 16 17 18 19 20 21 22 23 24 25 26 27
000
ASUS46 KPQR 071410
RWROR

OREGON REGIONAL WEATHER ROUNDUP
NATIONAL WEATHER SERVICE PORTLAND OR
600 AM PST WED DEC 07 2016

NOTE: "FAIR" INDICATES FEW OR NO CLOUDS BELOW 12,000 FEET WITH
NO SIGNIFICANT WEATHER AND/OR OBSTRUCTIONS TO VISIBILITY.

ORZ001>013-071500-
NORTHWEST OREGON


CITY           SKY/WX    TMP DP  RH WIND       PRES   REMARKS
ASTORIA        CLEAR     31  26  82 SE5       30.35S WCI  26
NEWPORT        CLEAR     32  32 100 E14G20    30.31F WCI  22
PORTLAND       CLOUDY    31  29  92 N3        30.38S FOG
VANCOUVER WA   CLOUDY    31  30  96 N3        30.38R FOG
SCAPPOOSE      CLOUDY    29  28  96 NW5       30.38R WCI  24
HILLSBORO      CLOUDY    28  26  92 CALM      30.37R
AURORA         CLEAR     25  23  92 N6        30.37R WCI  18
MCMINNVILLE    CLEAR     28  25  88 N8        30.36F WCI  20
SALEM          FOG       29  27  92 N6        30.34S VSB 3/4 WCI  23
CORVALLIS        N/A     34  30  86 NE6       30.33S WCI  29
EUGENE         FOG       31  29  92 NE8       30.32F VSB 1/2 WCI  23
$$

ORZ021-028-071500-
SOUTHWEST OREGON


CITY           SKY/WX    TMP DP  RH WIND       PRES   REMARKS
NORTH BEND     CLEAR     36  32  87 E12       30.26F WCI  27
BROOKINGS      MOCLDY    40  25  55 E8        30.16F WCI  34
ROSEBURG       PTCLDY    29  27  92 CALM      30.28F
SEXTON SUMMIT  CLEAR     21  19  92 E16G25    30.08F WCI   7
MEDFORD        PTCLDY    26  25  96 N5        30.25S FOG     WCI  20
$$

ORZ014>016-041-071500-
COLUMBIA GORGE


CITY           SKY/WX    TMP DP  RH WIND       PRES   REMARKS
TROUTDALE      CLEAR     30  27  88 VRB3      30.37F
THE DALLES     CLOUDY    28  24  85 SE6       30.45R WCI  22
$$

ORZ029>031-041-044-049-050-061>064-502-503-505>511-071500-
EASTERN OREGON


CITY           SKY/WX    TMP DP  RH WIND       PRES   REMARKS
REDMOND        PTCLDY     4   0  83 CALM      30.26R
BEND           PTCLDY     0  -4  85 S5        30.24S WCI -10
PRINEVILLE     PTCLDY     5   1  85 CALM      30.26R
KLAMATH FALLS  PTCLDY    13  10  88 E5        30.18R WCI   5
LAKEVIEW       PTCLDY     1  -6  71 N7        30.18R WCI -11
HERMISTON      CLOUDY    20  15  81 SE3       30.45R
PENDLETON      CLOUDY    16   9  74 SE8       30.39R WCI   5
JOHN DAY       CLEAR      9   5  84 E8        30.26R WCI  -4
MEACHAM        CLEAR    -10 -18  67 CALM      30.25R
LA GRANDE      CLEAR      9   0  66 CALM      30.32R
BAKER CITY     CLEAR     -2  -5  87 N3        30.28R
BURNS          CLEAR      1  -3  83 CALM      30.23R
ROME             N/A      4   0  83 SE6       30.21  WCI  -7
ONTARIO        PTCLDY    13   9  84 CALM      30.36R
$$




USA.gov is the U.S. government's official web portal to all federal, state and local government web resources and services.